This demonstration page uses our WeatherBlox Daily Observations layout. Learn more.

38.88101, -77.10428

Hourly Observations for September 14, 2015

Temp ( °F °C ) Dew Point ( °F °C ) Humidity (%) Winds ( mph kmh ) Pressure ( in mb ) Visibility ( mi km ) Precip ( " mm )
12:52 am 00:52 Mostly Clear 61 16.1 46 7.8 58 58 W 7 11 30.03 1017 10 16.0934 0 0
1:52 am 01:52 Mostly Clear 58 14.4 46 7.8 65 65 WSW 6 9 30.03 1017 10 16.0934 0 0
2:52 am 02:52 Clear 58 14.4 46 7.8 65 65 WSW 7 11 30.04 1017 10 16.0934 0 0
3:52 am 03:52 Clear 56 13.3 47 8.3 72 72 WSW 7 11 30.06 1018 10 16.0934 0 0
4:52 am 04:52 Clear 56 13.3 46 7.8 70 70 WSW 8 13 30.08 1019 10 16.0934 0 0
5:52 am 05:52 Clear 56 13.3 46 7.8 70 70 WSW 7 11 30.1 1019 10 16.0934 0 0
6:52 am 06:52 Sunny 55 12.8 46 7.8 72 72 WSW 7 11 30.14 1021 10 16.0934 0 0
7:52 am 07:52 Sunny 58 14.4 46 7.8 65 65 WSW 9 15 30.16 1021 10 16.0934 0 0
8:52 am 08:52 Sunny 63 17.2 45 7.2 52 52 WSW 7 11 30.17 1022 10 16.0934 0 0
9:52 am 09:52 Sunny 68 20 45 7.2 44 44 W 12 19 30.18 1022 10 16.0934 0 0
10:52 am 10:52 Sunny 72 22.2 46 7.8 40 40 WNW 10 17 30.19 1023 10 16.0934 0 0
11:52 am 11:52 Mostly Sunny 74 23.3 44 6.7 34 34 NW 14 22 30.19 1023 10 16.0934 0 0
12:52 pm 12:52 Mostly Sunny 75 23.9 45 7.2 34 34 WNW 13 20 30.19 1022 10 16.0934 0 0
1:52 pm 13:52 Mostly Sunny 77 25 45 7.2 32 32 WNW 8 13 30.17 1022 10 16.0934 0 0
2:52 pm 14:52 Mostly Sunny 78 25.6 44 6.7 30 30 W 14 22 30.16 1021 10 16.0934 0 0
3:52 pm 15:52 Mostly Sunny 79 26.1 44 6.7 29 29 WNW 14 22 30.16 1021 10 16.0934 0 0
4:52 pm 16:52 Sunny 79 26.1 44 6.7 29 29 WNW 10 17 30.16 1021 10 16.0934 0 0
5:52 pm 17:52 Sunny 79 26.1 44 6.7 29 29 WNW 12 19 30.16 1021 10 16.0934 0 0
6:52 pm 18:52 Sunny 77 25 44 6.7 31 31 WNW 9 15 30.18 1022 10 16.0934 0 0
7:52 pm 19:52 Clear 74 23.3 47 8.3 38 38 WSW 5 7 30.19 1022 10 16.0934 0 0
8:52 pm 20:52 Clear 70 21.1 49 9.4 47 47 SW 5 7 30.21 1023 10 16.0934 0 0
9:52 pm 21:52 Clear 68 20 53 11.7 59 59 SW 3 6 30.23 1024 10 16.0934 0 0
10:52 pm 22:52 Clear 66 18.9 51 10.6 59 59 SSW 7 11 30.25 1024 10 16.0934 0 0
11:52 pm 23:52 Clear 64 17.8 51 10.6 63 63 SSW 5 7 30.26 1025 10 16.0934 0 0

Powered by AerisWeather